Location: Tel Aviv
(32.0670°N, 34.7670°E)
Time: 04:32:44
(UTC+02:00)

Transit 2A - All Passes

Search period start: 23 January 2022 00:00
Search period end: 02 February 2022 00:00
Orbit: 591 x 967 km, 66.7° (Epoch: 22 January)

Date Brightness Start Highest point End Pass type
(mag) Time Alt. Az. Time Alt. Az. Time Alt. Az.
23 Jan - 11:00:07 10° SSW 11:06:05 84° ESE 11:12:27 10° NNE daylight
23 Jan - 12:46:33 10° W 12:50:08 16° NW 12:53:48 10° NNW daylight
23 Jan - 19:53:21 10° N 19:58:21 27° NE 20:02:58 10° ESE visible
23 Jan - 21:36:21 10° NW 21:41:37 36° WSW 21:46:23 10° S night (unlit)
24 Jan - 10:26:06 10° S 10:31:54 57° ESE 10:38:06 10° NE daylight
24 Jan - 12:10:56 10° WSW 12:15:34 22° NW 12:20:23 10° N daylight
24 Jan - 19:19:42 10° N 19:23:50 19° NE 19:27:44 10° E visible
24 Jan - 21:01:49 10° NW 21:07:31 56° WSW 21:12:39 10° S visible
25 Jan - 09:52:21 10° S 09:57:48 38° ESE 10:03:34 10° NE daylight
25 Jan - 11:35:46 10° WSW 11:41:05 31° NW 11:46:38 10° N daylight
25 Jan - 18:46:29 10° NNE 18:49:15 13° NE 18:51:56 10° ENE visible
25 Jan - 20:27:28 10° NNW 20:33:22 86° WSW 20:38:38 10° SSE visible
26 Jan - 09:18:56 10° SSE 09:23:45 26° ESE 09:28:48 10° NE daylight
26 Jan - 11:00:56 10° SW 11:06:40 43° WNW 11:12:43 10° NNE daylight
26 Jan - 19:53:16 10° NNW 19:59:07 63° ENE 20:04:21 10° SE visible
26 Jan - 21:38:56 10° WNW 21:41:30 13° W 21:43:57 10° SW night (unlit)
27 Jan - 08:46:04 10° SE 08:49:46 17° ESE 08:53:35 10° ENE daylight
27 Jan - 10:26:22 10° SW 10:32:20 63° WNW 10:38:40 10° NNE daylight
27 Jan - 12:16:17 10° NW 12:16:51 10° NW 12:17:26 10° NW daylight
27 Jan - 19:19:11 10° NNW 19:24:47 42° ENE 19:29:49 10° SE visible
27 Jan - 21:03:22 10° WNW 21:07:32 21° WSW 21:11:25 10° SSW visible
28 Jan - 08:14:52 10° ESE 08:15:49 10° E 08:16:47 10° E daylight
28 Jan - 09:52:03 10° SSW 09:58:04 90° ESE 10:04:29 10° NNE daylight
28 Jan - 11:38:50 10° W 11:42:11 15° NW 11:45:37 10° NNW daylight
28 Jan - 18:45:18 10° N 18:50:21 29° NE 18:55:00 10° ESE visible
28 Jan - 20:28:28 10° NW 20:33:32 33° WSW 20:38:08 10° S visible
29 Jan - 09:17:59 10° S 09:23:53 62° ESE 09:30:09 10° NNE daylight
29 Jan - 11:03:05 10° W 11:07:37 21° NW 11:12:16 10° N daylight
29 Jan - 18:11:36 10° N 18:15:52 20° NE 18:19:50 10° E visible
29 Jan - 19:53:53 10° NW 19:59:28 51° WSW 20:04:28 10° S visible
30 Jan - 08:44:10 10° S 08:49:45 42° ESE 08:55:39 10° NE daylight
30 Jan - 10:27:52 10° WSW 10:33:07 29° NW 10:38:34 10° N daylight
30 Jan - 17:38:18 10° NNE 17:41:17 14° NE 17:44:08 10° ENE visible
30 Jan - 19:19:29 10° NNW 19:25:19 80° WSW 19:30:30 10° SSE visible
31 Jan - 08:10:41 10° SSE 08:15:42 28° ESE 08:20:56 10° NE daylight
31 Jan - 09:52:58 10° SW 09:58:41 41° WNW 10:04:40 10° N daylight
31 Jan - 18:45:16 10° NNW 18:51:05 68° ENE 18:56:16 10° SE visible
31 Jan - 20:31:28 10° W 20:33:23 12° W 20:35:13 10° WSW visible
01 Feb - 07:37:41 10° SE 07:41:42 19° ESE 07:45:51 10° ENE daylight
01 Feb - 09:18:21 10° SW 09:24:20 59° WNW 09:30:39 10° NNE daylight
01 Feb - 18:11:10 10° NNW 18:16:46 45° ENE 18:21:46 10° SE visible
01 Feb - 19:55:35 10° WNW 19:59:26 19° WSW 20:03:03 10° SSW visible
